Year,Month,Day,Hour,Minute,Value (Times are PST for windgust in km/hr)
2013,03,20,00,00,6.40
2013,03,20,00,02,1.60
2013,03,20,00,03,4.80
2013,03,20,00,04,1.60
2013,03,20,00,05,3.20
2013,03,20,00,06,6.40
2013,03,20,00,07,3.20
2013,03,20,00,08,1.60
2013,03,20,00,09,1.60
2013,03,20,00,10,3.20
2013,03,20,00,11,1.60
2013,03,20,00,13,3.20
2013,03,20,00,14,1.60
2013,03,20,00,19,1.60
2013,03,20,00,20,1.60
2013,03,20,00,21,1.60
2013,03,20,00,22,1.60
2013,03,20,00,23,1.60
2013,03,20,00,24,1.60
2013,03,20,00,26,4.80
2013,03,20,00,27,4.80
2013,03,20,00,28,6.40
2013,03,20,00,29,4.80
2013,03,20,00,32,1.60
2013,03,20,00,33,1.60
2013,03,20,00,36,1.60
2013,03,20,00,41,1.60
2013,03,20,00,43,1.60
2013,03,20,00,44,1.60
2013,03,20,00,45,1.60
2013,03,20,00,46,1.60
2013,03,20,00,49,1.60
2013,03,20,00,53,1.60
2013,03,20,00,54,1.60
2013,03,20,00,58,1.60
2013,03,20,00,59,1.60
2013,03,20,01,00,3.20
2013,03,20,01,06,4.80
2013,03,20,01,07,1.60
2013,03,20,01,08,4.80
2013,03,20,01,09,3.20
2013,03,20,01,10,3.20
2013,03,20,01,11,3.20
2013,03,20,01,12,1.60
2013,03,20,01,13,1.60
2013,03,20,01,14,1.60
2013,03,20,01,16,1.60
2013,03,20,01,17,6.40
2013,03,20,01,18,1.60
2013,03,20,01,20,1.60
2013,03,20,01,22,1.60
2013,03,20,01,23,4.80
2013,03,20,01,24,1.60
2013,03,20,01,25,6.40
2013,03,20,01,26,8.10
2013,03,20,01,27,1.60
2013,03,20,01,28,4.80
2013,03,20,01,29,3.20
2013,03,20,01,38,4.80
2013,03,20,01,39,1.60
2013,03,20,01,40,1.60
2013,03,20,01,41,1.60
2013,03,20,01,42,1.60
2013,03,20,01,43,1.60
2013,03,20,01,44,1.60
2013,03,20,01,45,1.60
2013,03,20,03,21,1.60
2013,03,20,03,23,1.60
2013,03,20,03,50,1.60
2013,03,20,04,02,1.60
2013,03,20,04,03,1.60
2013,03,20,04,08,1.60
2013,03,20,04,09,1.60
2013,03,20,04,16,1.60
2013,03,20,04,38,1.60
2013,03,20,04,44,4.80
2013,03,20,04,45,3.20
2013,03,20,04,46,1.60
2013,03,20,04,49,1.60
2013,03,20,04,50,6.40
2013,03,20,04,51,1.60
2013,03,20,04,52,3.20
2013,03,20,04,53,3.20
2013,03,20,04,55,4.80
2013,03,20,04,56,3.20
2013,03,20,05,01,1.60
2013,03,20,06,03,1.60
2013,03,20,06,12,1.60
2013,03,20,06,29,1.60
2013,03,20,06,30,1.60
2013,03,20,07,36,1.60
2013,03,20,07,37,1.60
2013,03,20,08,02,1.60
2013,03,20,08,06,1.60
2013,03,20,08,13,1.60
2013,03,20,08,16,1.60
2013,03,20,08,17,1.60
2013,03,20,08,19,1.60
2013,03,20,08,21,1.60
2013,03,20,08,28,1.60
2013,03,20,08,31,1.60
2013,03,20,08,39,1.60
2013,03,20,08,42,4.80
2013,03,20,08,43,1.60
2013,03,20,08,45,4.80
2013,03,20,08,46,4.80
2013,03,20,08,48,1.60
2013,03,20,08,49,1.60
2013,03,20,08,50,1.60
2013,03,20,08,53,4.80
2013,03,20,08,54,8.10
2013,03,20,08,55,17.70
2013,03,20,08,56,19.30
2013,03,20,08,57,16.10
2013,03,20,08,58,16.10
2013,03,20,08,59,17.70
2013,03,20,09,00,17.70
2013,03,20,09,01,19.30
2013,03,20,09,02,22.50
2013,03,20,09,03,17.70
2013,03,20,09,04,8.10
2013,03,20,09,05,16.10
2013,03,20,09,06,25.70
2013,03,20,09,07,19.30
2013,03,20,09,08,14.50
2013,03,20,09,09,16.10
2013,03,20,09,10,17.70
2013,03,20,09,11,6.40
2013,03,20,09,12,11.30
2013,03,20,09,13,19.30
2013,03,20,09,14,11.30
2013,03,20,09,15,17.70
2013,03,20,09,16,8.10
2013,03,20,09,17,14.50
2013,03,20,09,18,17.70
2013,03,20,09,19,17.70
2013,03,20,09,20,19.30
2013,03,20,09,21,9.60
2013,03,20,09,22,17.70
2013,03,20,09,23,16.10
2013,03,20,09,24,17.70
2013,03,20,09,25,25.70
2013,03,20,09,26,19.30
2013,03,20,09,27,19.30
2013,03,20,09,28,24.20
2013,03,20,09,29,22.50
2013,03,20,09,30,20.90
2013,03,20,09,31,22.50
2013,03,20,09,32,27.40
2013,03,20,09,33,17.70
2013,03,20,09,34,17.70
2013,03,20,09,35,20.90
2013,03,20,09,36,24.20
2013,03,20,09,37,24.20
2013,03,20,09,38,24.20
2013,03,20,09,39,33.80
2013,03,20,09,40,20.90
2013,03,20,09,41,27.40
2013,03,20,09,42,29.00
2013,03,20,09,43,25.70
2013,03,20,09,44,24.20
2013,03,20,09,45,24.20
2013,03,20,09,46,27.40
2013,03,20,09,47,27.40
2013,03,20,09,48,25.70
2013,03,20,09,49,33.80
2013,03,20,09,50,27.40
2013,03,20,09,51,19.30
2013,03,20,09,52,14.50
2013,03,20,09,53,17.70
2013,03,20,09,54,22.50
2013,03,20,09,55,14.50
2013,03,20,09,56,17.70
2013,03,20,09,57,20.90
2013,03,20,09,58,16.10
2013,03,20,09,59,22.50
2013,03,20,10,00,19.30
2013,03,20,10,01,19.30
2013,03,20,10,02,24.20
2013,03,20,10,03,22.50
2013,03,20,10,04,24.20
2013,03,20,10,05,25.70
2013,03,20,10,06,24.20
2013,03,20,10,07,20.90
2013,03,20,10,08,29.00
2013,03,20,10,09,37.00
2013,03,20,10,10,33.80
2013,03,20,10,11,25.70
2013,03,20,10,12,27.40
2013,03,20,10,13,22.50
2013,03,20,10,14,16.10
2013,03,20,10,15,17.70
2013,03,20,10,16,35.40
2013,03,20,10,17,22.50
2013,03,20,10,18,32.20
2013,03,20,10,19,30.60
2013,03,20,10,20,27.40
2013,03,20,10,21,25.70
2013,03,20,10,22,22.50
2013,03,20,10,23,27.40
2013,03,20,10,24,25.70
2013,03,20,10,25,29.00
2013,03,20,10,26,17.70
2013,03,20,10,27,35.40
2013,03,20,10,28,29.00
2013,03,20,10,29,41.80
2013,03,20,10,30,40.20
2013,03,20,10,31,27.40
2013,03,20,10,32,29.00
2013,03,20,10,33,30.60
2013,03,20,10,34,37.00
2013,03,20,10,35,30.60
2013,03,20,10,36,30.60
2013,03,20,10,37,33.80
2013,03,20,10,38,29.00
2013,03,20,10,39,29.00
2013,03,20,10,40,29.00
2013,03,20,10,41,27.40
2013,03,20,10,42,22.50
2013,03,20,10,43,27.40
2013,03,20,10,44,25.70
2013,03,20,10,45,22.50
2013,03,20,10,46,29.00
2013,03,20,10,47,17.70
2013,03,20,10,48,22.50
2013,03,20,10,49,30.60
2013,03,20,10,50,24.20
2013,03,20,10,51,17.70
2013,03,20,10,52,20.90
2013,03,20,10,53,27.40
2013,03,20,10,54,38.60
2013,03,20,10,55,24.20
2013,03,20,10,56,41.80
2013,03,20,10,57,30.60
2013,03,20,10,58,17.70
2013,03,20,10,59,27.40
2013,03,20,11,00,29.00
2013,03,20,11,01,22.50
2013,03,20,11,02,19.30
2013,03,20,11,03,20.90
2013,03,20,11,04,25.70
2013,03,20,11,05,24.20
2013,03,20,11,06,32.20
2013,03,20,11,07,24.20
2013,03,20,11,08,25.70
2013,03,20,11,09,25.70
2013,03,20,11,10,22.50
2013,03,20,11,11,22.50
2013,03,20,11,12,22.50
2013,03,20,11,13,22.50
2013,03,20,11,14,16.10
2013,03,20,11,15,20.90
2013,03,20,11,16,22.50
2013,03,20,11,17,19.30
2013,03,20,11,18,14.50
2013,03,20,11,19,29.00
2013,03,20,11,20,20.90
2013,03,20,11,21,25.70
2013,03,20,11,22,22.50
2013,03,20,11,23,22.50
2013,03,20,11,24,24.20
2013,03,20,11,25,30.60
2013,03,20,11,26,25.70
2013,03,20,11,27,20.90
2013,03,20,11,28,19.30
2013,03,20,11,29,14.50
2013,03,20,11,30,22.50
2013,03,20,11,31,25.70
2013,03,20,11,32,29.00
2013,03,20,11,33,16.10
2013,03,20,11,34,22.50
2013,03,20,11,35,17.70
2013,03,20,11,36,22.50
2013,03,20,11,37,19.30
2013,03,20,11,38,19.30
2013,03,20,11,39,20.90
2013,03,20,11,40,27.40
2013,03,20,11,41,16.10
2013,03,20,11,42,16.10
2013,03,20,11,43,24.20
2013,03,20,11,44,12.90
2013,03,20,11,45,20.90
2013,03,20,11,46,25.70
2013,03,20,11,47,19.30
2013,03,20,11,48,20.90
2013,03,20,11,49,9.60
2013,03,20,11,50,19.30
2013,03,20,11,51,17.70
2013,03,20,11,52,22.50
2013,03,20,11,53,22.50
2013,03,20,11,54,17.70
2013,03,20,11,55,17.70
2013,03,20,11,56,24.20
2013,03,20,11,57,30.60
2013,03,20,11,58,25.70
2013,03,20,11,59,32.20
2013,03,20,12,00,32.20
2013,03,20,12,01,37.00
2013,03,20,12,02,25.70
2013,03,20,12,03,32.20
2013,03,20,12,04,24.20
2013,03,20,12,05,25.70
2013,03,20,12,06,24.20
2013,03,20,12,07,32.20
2013,03,20,12,08,27.40
2013,03,20,12,09,22.50
2013,03,20,12,10,33.80
2013,03,20,12,11,24.20
2013,03,20,12,12,25.70
2013,03,20,12,13,32.20
2013,03,20,12,14,25.70
2013,03,20,12,15,29.00
2013,03,20,12,16,24.20
2013,03,20,12,17,19.30
2013,03,20,12,18,30.60
2013,03,20,12,19,24.20
2013,03,20,12,20,17.70
2013,03,20,12,21,19.30
2013,03,20,12,22,11.30
2013,03,20,12,23,19.30
2013,03,20,12,24,24.20
2013,03,20,12,25,20.90
2013,03,20,12,26,24.20
2013,03,20,12,27,32.20
2013,03,20,12,28,27.40
2013,03,20,12,29,33.80
2013,03,20,12,30,20.90
2013,03,20,12,31,20.90
2013,03,20,12,32,22.50
2013,03,20,12,33,19.30
2013,03,20,12,34,22.50
2013,03,20,12,35,20.90
2013,03,20,12,36,20.90
2013,03,20,12,37,25.70
2013,03,20,12,38,24.20
2013,03,20,12,39,19.30
2013,03,20,12,40,19.30
2013,03,20,12,41,20.90
2013,03,20,12,42,19.30
2013,03,20,12,43,20.90
2013,03,20,12,44,25.70
2013,03,20,12,45,24.20
2013,03,20,12,46,29.00
2013,03,20,12,47,29.00
2013,03,20,12,48,24.20
2013,03,20,12,49,20.90
2013,03,20,12,50,33.80
2013,03,20,12,51,30.60
2013,03,20,12,52,27.40
2013,03,20,12,53,29.00
2013,03,20,12,54,25.70
2013,03,20,12,55,19.30
2013,03,20,12,56,29.00
2013,03,20,12,57,27.40
2013,03,20,12,58,25.70
2013,03,20,12,59,25.70
2013,03,20,13,00,29.00
2013,03,20,13,01,27.40
2013,03,20,13,02,20.90
2013,03,20,13,03,38.60
2013,03,20,13,04,25.70
2013,03,20,13,05,24.20
2013,03,20,13,06,33.80
2013,03,20,13,07,27.40
2013,03,20,13,08,29.00
2013,03,20,13,09,25.70
2013,03,20,13,10,37.00
2013,03,20,13,11,29.00
2013,03,20,13,12,40.20
2013,03,20,13,13,35.40
2013,03,20,13,14,37.00
2013,03,20,13,15,35.40
2013,03,20,13,16,25.70
2013,03,20,13,17,29.00
2013,03,20,13,18,37.00
2013,03,20,13,19,24.20
2013,03,20,13,20,29.00
2013,03,20,13,21,33.80
2013,03,20,13,22,27.40
2013,03,20,13,23,25.70
2013,03,20,13,24,32.20
2013,03,20,13,25,30.60
2013,03,20,13,26,29.00
2013,03,20,13,27,40.20
2013,03,20,13,28,27.40
2013,03,20,13,29,27.40
2013,03,20,13,30,38.60
2013,03,20,13,31,29.00
2013,03,20,13,32,40.20
2013,03,20,13,33,29.00
2013,03,20,13,34,35.40
2013,03,20,13,35,33.80
2013,03,20,13,36,33.80
2013,03,20,13,37,24.20
2013,03,20,13,38,22.50
2013,03,20,13,39,32.20
2013,03,20,13,40,35.40
2013,03,20,13,41,35.40
2013,03,20,13,42,37.00
2013,03,20,13,43,35.40
2013,03,20,13,44,30.60
2013,03,20,13,45,22.50
2013,03,20,13,46,43.50
2013,03,20,13,47,30.60
2013,03,20,13,48,32.20
2013,03,20,13,49,33.80
2013,03,20,13,50,29.00
2013,03,20,13,51,45.10
2013,03,20,13,52,29.00
2013,03,20,13,53,30.60
2013,03,20,13,54,29.00
2013,03,20,13,55,33.80
2013,03,20,13,56,37.00
2013,03,20,13,57,40.20
2013,03,20,13,58,33.80
2013,03,20,13,59,25.70
2013,03,20,14,00,25.70
2013,03,20,14,01,30.60
2013,03,20,14,02,25.70
2013,03,20,14,03,38.60
2013,03,20,14,04,30.60
2013,03,20,14,05,29.00
2013,03,20,14,06,35.40
2013,03,20,14,07,30.60
2013,03,20,14,08,41.80
2013,03,20,14,09,24.20
2013,03,20,14,10,25.70
2013,03,20,14,11,27.40
2013,03,20,14,12,32.20
2013,03,20,14,13,22.50
2013,03,20,14,14,22.50
2013,03,20,14,15,29.00
2013,03,20,14,16,24.20
2013,03,20,14,17,25.70
2013,03,20,14,18,27.40
2013,03,20,14,19,25.70
2013,03,20,14,20,29.00
2013,03,20,14,21,30.60
2013,03,20,14,22,30.60
2013,03,20,14,23,25.70
2013,03,20,14,24,29.00
2013,03,20,14,25,22.50
2013,03,20,14,26,20.90
2013,03,20,14,27,20.90
2013,03,20,14,28,30.60
2013,03,20,14,29,20.90
2013,03,20,14,30,24.20
2013,03,20,14,31,24.20
2013,03,20,14,32,24.20
2013,03,20,14,33,22.50
2013,03,20,14,34,19.30
2013,03,20,14,35,27.40
2013,03,20,14,36,24.20
2013,03,20,14,37,20.90
2013,03,20,14,38,24.20
2013,03,20,14,39,24.20
2013,03,20,14,40,24.20
2013,03,20,14,41,24.20
2013,03,20,14,42,30.60
2013,03,20,14,43,17.70
2013,03,20,14,44,19.30
2013,03,20,14,45,32.20
2013,03,20,14,46,22.50
2013,03,20,14,47,22.50
2013,03,20,14,48,30.60
2013,03,20,14,49,20.90
2013,03,20,14,50,24.20
2013,03,20,14,51,25.70
2013,03,20,14,52,24.20
2013,03,20,14,53,29.00
2013,03,20,14,54,17.70
2013,03,20,14,55,16.10
2013,03,20,14,56,27.40
2013,03,20,14,57,27.40
2013,03,20,14,58,22.50
2013,03,20,14,59,25.70
2013,03,20,15,00,24.20
2013,03,20,15,01,19.30
2013,03,20,15,02,19.30
2013,03,20,15,03,20.90
2013,03,20,15,04,17.70
2013,03,20,15,05,20.90
2013,03,20,15,06,20.90
2013,03,20,15,07,17.70
2013,03,20,15,08,22.50
2013,03,20,15,09,30.60
2013,03,20,15,10,30.60
2013,03,20,15,11,29.00
2013,03,20,15,12,25.70
2013,03,20,15,13,20.90
2013,03,20,15,14,17.70
2013,03,20,15,15,27.40
2013,03,20,15,16,25.70
2013,03,20,15,17,29.00
2013,03,20,15,18,37.00
2013,03,20,15,19,25.70
2013,03,20,15,20,32.20
2013,03,20,15,21,22.50
2013,03,20,15,22,16.10
2013,03,20,15,23,29.00
2013,03,20,15,24,30.60
2013,03,20,15,25,33.80
2013,03,20,15,26,24.20
2013,03,20,15,27,27.40
2013,03,20,15,28,29.00
2013,03,20,15,29,20.90
2013,03,20,15,30,17.70
2013,03,20,15,31,19.30
2013,03,20,15,32,29.00
2013,03,20,15,33,22.50
2013,03,20,15,34,30.60
2013,03,20,15,35,29.00
2013,03,20,15,36,25.70
2013,03,20,15,37,30.60
2013,03,20,15,38,33.80
2013,03,20,15,39,29.00
2013,03,20,15,40,29.00
2013,03,20,15,41,30.60
2013,03,20,15,42,33.80
2013,03,20,15,43,29.00
2013,03,20,15,44,33.80
2013,03,20,15,45,25.70
2013,03,20,15,46,29.00
2013,03,20,15,47,49.90
2013,03,20,15,48,30.60
2013,03,20,15,49,32.20
2013,03,20,15,50,25.70
2013,03,20,15,51,29.00
2013,03,20,15,52,30.60
2013,03,20,15,53,57.90
2013,03,20,15,54,32.20
2013,03,20,15,55,33.80
2013,03,20,15,56,35.40
2013,03,20,15,57,33.80
2013,03,20,15,58,41.80
2013,03,20,15,59,51.50
2013,03,20,16,00,37.00
2013,03,20,16,01,22.50
2013,03,20,16,02,29.00
2013,03,20,16,03,33.80
2013,03,20,16,04,41.80
2013,03,20,16,05,46.70
2013,03,20,16,06,40.20
2013,03,20,16,07,32.20
2013,03,20,16,08,43.50
2013,03,20,16,09,33.80
2013,03,20,16,10,49.90
2013,03,20,16,11,43.50
2013,03,20,16,12,45.10
2013,03,20,16,13,33.80
2013,03,20,16,14,41.80
2013,03,20,16,15,24.20
2013,03,20,16,16,25.70
2013,03,20,16,17,33.80
2013,03,20,16,20,27.40
2013,03,20,16,21,48.30
2013,03,20,16,22,30.60
2013,03,20,16,23,32.20
2013,03,20,16,24,32.20
2013,03,20,16,25,32.20
2013,03,20,16,26,29.00
2013,03,20,16,27,41.80
2013,03,20,16,28,24.20
2013,03,20,16,29,30.60
2013,03,20,16,30,37.00
2013,03,20,16,31,33.80
2013,03,20,16,32,46.70
2013,03,20,16,33,37.00
2013,03,20,16,34,32.20
2013,03,20,16,35,35.40
2013,03,20,16,36,43.50
2013,03,20,16,37,37.00
2013,03,20,16,38,32.20
2013,03,20,16,39,24.20
2013,03,20,16,40,32.20
2013,03,20,16,41,41.80
2013,03,20,16,42,40.20
2013,03,20,16,43,32.20
2013,03,20,16,44,46.70
2013,03,20,16,45,30.60
2013,03,20,16,46,43.50
2013,03,20,16,47,33.80
2013,03,20,16,48,37.00
2013,03,20,16,49,38.60
2013,03,20,16,50,32.20
2013,03,20,16,51,27.40
2013,03,20,16,52,41.80
2013,03,20,16,53,35.40
2013,03,20,16,54,40.20
2013,03,20,16,55,48.30
2013,03,20,16,56,41.80
2013,03,20,16,57,38.60
2013,03,20,16,58,45.10
2013,03,20,16,59,29.00
2013,03,20,17,00,35.40
2013,03,20,17,01,38.60
2013,03,20,17,02,32.20
2013,03,20,17,03,32.20
2013,03,20,17,04,33.80
2013,03,20,17,05,30.60
2013,03,20,17,06,33.80
2013,03,20,17,07,41.80
2013,03,20,17,08,32.20
2013,03,20,17,09,30.60
2013,03,20,17,10,37.00
2013,03,20,17,11,37.00
2013,03,20,17,12,27.40
2013,03,20,17,13,45.10
2013,03,20,17,14,38.60
2013,03,20,17,15,32.20
2013,03,20,17,16,25.70
2013,03,20,17,17,35.40
2013,03,20,17,18,33.80
2013,03,20,17,19,29.00
2013,03,20,17,20,38.60
2013,03,20,17,21,37.00
2013,03,20,17,22,51.50
2013,03,20,17,23,29.00
2013,03,20,17,24,27.40
2013,03,20,17,25,20.90
2013,03,20,17,26,27.40
2013,03,20,17,27,24.20
2013,03,20,17,28,29.00
2013,03,20,17,29,33.80
2013,03,20,17,30,29.00
2013,03,20,17,31,29.00
2013,03,20,17,32,29.00
2013,03,20,17,33,25.70
2013,03,20,17,34,30.60
2013,03,20,17,35,29.00
2013,03,20,17,36,29.00
2013,03,20,17,37,37.00
2013,03,20,17,38,38.60
2013,03,20,17,39,37.00
2013,03,20,17,40,46.70
2013,03,20,17,41,40.20
2013,03,20,17,42,29.00
2013,03,20,17,43,32.20
2013,03,20,17,44,32.20
2013,03,20,17,45,29.00
2013,03,20,17,46,22.50
2013,03,20,17,47,35.40
2013,03,20,17,48,25.70
2013,03,20,17,49,32.20
2013,03,20,17,50,25.70
2013,03,20,17,51,24.20
2013,03,20,17,52,22.50
2013,03,20,17,53,25.70
2013,03,20,17,54,25.70
2013,03,20,17,55,38.60
2013,03,20,17,56,33.80
2013,03,20,17,57,29.00
2013,03,20,17,58,29.00
2013,03,20,17,59,29.00
2013,03,20,18,00,29.00
2013,03,20,18,01,24.20
2013,03,20,18,02,27.40
2013,03,20,18,03,32.20
2013,03,20,18,04,33.80
2013,03,20,18,05,30.60
2013,03,20,18,06,33.80
2013,03,20,18,07,27.40
2013,03,20,18,08,22.50
2013,03,20,18,09,27.40
2013,03,20,18,10,20.90
2013,03,20,18,11,29.00
2013,03,20,18,12,24.20
2013,03,20,18,13,30.60
2013,03,20,18,14,33.80
2013,03,20,18,15,29.00
2013,03,20,18,16,22.50
2013,03,20,18,17,40.20
2013,03,20,18,18,32.20
2013,03,20,18,19,30.60
2013,03,20,18,20,35.40
2013,03,20,18,21,29.00
2013,03,20,18,22,32.20
2013,03,20,18,23,35.40
2013,03,20,18,24,37.00
2013,03,20,18,25,29.00
2013,03,20,18,26,29.00
2013,03,20,18,27,33.80
2013,03,20,18,28,25.70
2013,03,20,18,29,32.20
2013,03,20,18,30,27.40
2013,03,20,18,31,30.60
2013,03,20,18,32,24.20
2013,03,20,18,33,30.60
2013,03,20,18,34,30.60
2013,03,20,18,35,40.20
2013,03,20,18,36,20.90
2013,03,20,18,37,35.40
2013,03,20,18,38,20.90
2013,03,20,18,39,29.00
2013,03,20,18,40,29.00
2013,03,20,18,41,25.70
2013,03,20,18,42,33.80
2013,03,20,18,43,29.00
2013,03,20,18,44,40.20
2013,03,20,18,45,32.20
2013,03,20,18,46,37.00
2013,03,20,18,47,29.00
2013,03,20,18,48,20.90
2013,03,20,18,49,25.70
2013,03,20,18,50,25.70
2013,03,20,18,51,35.40
2013,03,20,18,52,27.40
2013,03,20,18,53,24.20
2013,03,20,18,54,25.70
2013,03,20,18,55,22.50
2013,03,20,18,56,20.90
2013,03,20,18,57,27.40
2013,03,20,18,58,22.50
2013,03,20,18,59,29.00
2013,03,20,19,00,25.70
2013,03,20,19,01,24.20
2013,03,20,19,02,24.20
2013,03,20,19,03,29.00
2013,03,20,19,04,17.70
2013,03,20,19,05,19.30
2013,03,20,19,06,19.30
2013,03,20,19,07,24.20
2013,03,20,19,08,22.50
2013,03,20,19,09,20.90
2013,03,20,19,10,24.20
2013,03,20,19,11,20.90
2013,03,20,19,12,22.50
2013,03,20,19,13,20.90
2013,03,20,19,14,19.30
2013,03,20,19,15,24.20
2013,03,20,19,16,30.60
2013,03,20,19,17,24.20
2013,03,20,19,18,19.30
2013,03,20,19,19,19.30
2013,03,20,19,20,20.90
2013,03,20,19,21,19.30
2013,03,20,19,22,17.70
2013,03,20,19,23,22.50
2013,03,20,19,24,25.70
2013,03,20,19,25,19.30
2013,03,20,19,26,27.40
2013,03,20,19,27,29.00
2013,03,20,19,28,24.20
2013,03,20,19,29,19.30
2013,03,20,19,30,17.70
2013,03,20,19,31,22.50
2013,03,20,19,32,24.20
2013,03,20,19,33,22.50
2013,03,20,19,34,17.70
2013,03,20,19,35,27.40
2013,03,20,19,36,22.50
2013,03,20,19,37,22.50
2013,03,20,19,38,19.30
2013,03,20,19,39,25.70
2013,03,20,19,40,27.40
2013,03,20,19,41,25.70
2013,03,20,19,42,37.00
2013,03,20,19,43,37.00
2013,03,20,19,44,33.80
2013,03,20,19,45,35.40
2013,03,20,19,46,32.20
2013,03,20,19,47,24.20
2013,03,20,19,48,30.60
2013,03,20,19,49,17.70
2013,03,20,19,50,17.70
2013,03,20,19,51,25.70
2013,03,20,19,52,33.80
2013,03,20,19,53,16.10
2013,03,20,19,54,19.30
2013,03,20,19,55,22.50
2013,03,20,19,56,22.50
2013,03,20,19,57,22.50
2013,03,20,19,58,25.70
2013,03,20,19,59,35.40
2013,03,20,20,00,19.30
2013,03,20,20,01,19.30
2013,03,20,20,02,19.30
2013,03,20,20,03,24.20
2013,03,20,20,04,16.10
2013,03,20,20,05,20.90
2013,03,20,20,06,20.90
2013,03,20,20,07,25.70
2013,03,20,20,08,20.90
2013,03,20,20,09,24.20
2013,03,20,20,10,20.90
2013,03,20,20,11,27.40
2013,03,20,20,12,22.50
2013,03,20,20,13,24.20
2013,03,20,20,14,29.00
2013,03,20,20,15,20.90
2013,03,20,20,16,24.20
2013,03,20,20,17,29.00
2013,03,20,20,18,22.50
2013,03,20,20,19,32.20
2013,03,20,20,20,27.40
2013,03,20,20,21,25.70
2013,03,20,20,22,20.90
2013,03,20,20,23,20.90
2013,03,20,20,24,20.90
2013,03,20,20,25,29.00
2013,03,20,20,26,29.00
2013,03,20,20,27,27.40
2013,03,20,20,28,25.70
2013,03,20,20,29,25.70
2013,03,20,20,30,22.50
2013,03,20,20,31,29.00
2013,03,20,20,32,27.40
2013,03,20,20,33,29.00
2013,03,20,20,34,30.60
2013,03,20,20,35,24.20
2013,03,20,20,36,22.50
2013,03,20,20,37,30.60
2013,03,20,20,38,27.40
2013,03,20,20,39,25.70
2013,03,20,20,40,30.60
2013,03,20,20,41,25.70
2013,03,20,20,42,22.50
2013,03,20,20,43,20.90
2013,03,20,20,44,29.00
2013,03,20,20,45,17.70
2013,03,20,20,46,17.70
2013,03,20,20,47,20.90
2013,03,20,20,48,16.10
2013,03,20,20,49,8.10
2013,03,20,20,50,9.60
2013,03,20,20,51,16.10
2013,03,20,20,52,11.30
2013,03,20,20,53,8.10
2013,03,20,20,54,17.70
2013,03,20,20,55,17.70
2013,03,20,20,56,22.50
2013,03,20,20,57,20.90
2013,03,20,20,58,17.70
2013,03,20,20,59,17.70
2013,03,20,21,00,17.70
2013,03,20,21,01,27.40
2013,03,20,21,02,30.60
2013,03,20,21,03,29.00
2013,03,20,21,04,25.70
2013,03,20,21,05,20.90
2013,03,20,21,06,17.70
2013,03,20,21,07,19.30
2013,03,20,21,08,11.30
2013,03,20,21,09,17.70
2013,03,20,21,10,17.70
2013,03,20,21,11,20.90
2013,03,20,21,12,20.90
2013,03,20,21,13,24.20
2013,03,20,21,14,20.90
2013,03,20,21,15,20.90
2013,03,20,21,16,17.70
2013,03,20,21,17,20.90
2013,03,20,21,18,16.10
2013,03,20,21,19,11.30
2013,03,20,21,20,14.50
2013,03,20,21,21,17.70
2013,03,20,21,22,14.50
2013,03,20,21,23,11.30
2013,03,20,21,24,19.30
2013,03,20,21,25,11.30
2013,03,20,21,26,12.90
2013,03,20,21,27,1.60
2013,03,20,21,28,17.70
2013,03,20,21,29,20.90
2013,03,20,21,30,17.70
2013,03,20,21,31,17.70
2013,03,20,21,32,22.50
2013,03,20,21,33,17.70
2013,03,20,21,34,24.20
2013,03,20,21,35,19.30
2013,03,20,21,36,19.30
2013,03,20,21,37,16.10
2013,03,20,21,38,16.10
2013,03,20,21,39,17.70
2013,03,20,21,40,14.50
2013,03,20,21,41,8.10
2013,03,20,21,42,19.30
2013,03,20,21,43,24.20
2013,03,20,21,44,19.30
2013,03,20,21,45,6.40
2013,03,20,21,46,11.30
2013,03,20,21,47,24.20
2013,03,20,21,48,9.60
2013,03,20,21,49,19.30
2013,03,20,21,50,29.00
2013,03,20,21,51,24.20
2013,03,20,21,52,14.50
2013,03,20,21,53,16.10
2013,03,20,21,54,11.30
2013,03,20,21,55,30.60
2013,03,20,21,56,29.00
2013,03,20,21,57,14.50
2013,03,20,21,58,6.40
2013,03,20,21,59,4.80
2013,03,20,22,00,24.20
2013,03,20,22,01,14.50
2013,03,20,22,02,20.90
2013,03,20,22,03,20.90
2013,03,20,22,04,19.30
2013,03,20,22,05,20.90
2013,03,20,22,06,6.40
2013,03,20,22,07,11.30
2013,03,20,22,08,11.30
2013,03,20,22,09,8.10
2013,03,20,22,10,17.70
2013,03,20,22,11,9.60
2013,03,20,22,12,9.60
2013,03,20,22,13,29.00
2013,03,20,22,14,17.70
2013,03,20,22,15,22.50
2013,03,20,22,16,14.50
2013,03,20,22,17,6.40
2013,03,20,22,18,20.90
2013,03,20,22,19,17.70
2013,03,20,22,20,17.70
2013,03,20,22,21,9.60
2013,03,20,22,22,11.30
2013,03,20,22,23,9.60
2013,03,20,22,24,9.60
2013,03,20,22,25,8.10
2013,03,20,22,26,3.20
2013,03,20,22,27,8.10
2013,03,20,22,28,3.20
2013,03,20,22,29,3.20
2013,03,20,22,32,3.20
2013,03,20,22,39,6.40
2013,03,20,22,41,4.80
2013,03,20,22,42,3.20
2013,03,20,22,43,4.80
2013,03,20,22,44,4.80
2013,03,20,22,45,3.20
2013,03,20,22,46,6.40
2013,03,20,22,47,6.40
2013,03,20,22,48,6.40
2013,03,20,22,49,8.10
2013,03,20,22,50,17.70
2013,03,20,22,51,11.30
2013,03,20,22,52,16.10
2013,03,20,22,53,9.60
2013,03,20,22,54,4.80
2013,03,20,22,55,20.90
2013,03,20,22,56,20.90
2013,03,20,22,57,9.60
2013,03,20,22,58,14.50
2013,03,20,22,59,3.20
2013,03,20,23,00,4.80
2013,03,20,23,01,3.20
2013,03,20,23,02,3.20
2013,03,20,23,03,3.20
2013,03,20,23,04,6.40
2013,03,20,23,05,1.60
2013,03,20,23,06,1.60
2013,03,20,23,07,8.10
2013,03,20,23,08,3.20
2013,03,20,23,09,4.80
2013,03,20,23,10,4.80
2013,03,20,23,11,6.40
2013,03,20,23,12,6.40
2013,03,20,23,13,4.80
2013,03,20,23,14,1.60
2013,03,20,23,16,1.60
2013,03,20,23,18,8.10
2013,03,20,23,19,8.10
2013,03,20,23,20,3.20
2013,03,20,23,22,1.60
2013,03,20,23,23,1.60
2013,03,20,23,25,6.40
2013,03,20,23,26,1.60
2013,03,20,23,27,24.20
2013,03,20,23,28,9.60
2013,03,20,23,29,14.50
2013,03,20,23,33,3.20
2013,03,20,23,34,8.10
2013,03,20,23,35,4.80
2013,03,20,23,37,3.20
2013,03,20,23,38,8.10
2013,03,20,23,41,1.60
2013,03,20,23,42,6.40
2013,03,20,23,43,4.80
2013,03,20,23,44,1.60
2013,03,20,23,45,4.80
2013,03,20,23,46,6.40
2013,03,20,23,47,4.80
2013,03,20,23,50,6.40
2013,03,20,23,51,11.30
2013,03,20,23,52,8.10
2013,03,20,23,53,6.40
2013,03,20,23,54,3.20
2013,03,20,23,56,1.60
2013,03,20,23,57,3.20
2013,03,20,23,58,6.40
2013,03,20,23,59,8.10
